DELTA 1 R/B, 3315

Orbit data source: Space-Track

DELTA 1 R/B, 3315 is space debris originally from a launch on Thu, 04 Jul 1968 UTC launched from the Air Force Western Test Range (AFWTR). Debris objects in space refer to the collection of defunct objects orbiting the Earth. Examples of debris include non-operational satellites, rocket bodies, and fragments generated from explosions, collisions, or faulty payload assembly.

Loading next visibility...
Identifier
3315, 1968-055B
Orbit
Active
Country
Flag of USUS
Related business
Manufacturer
Thiokol/TE
Mission
Spacecraft
Bus & Motor
STAR 37, Unknown motor
Mass
65 kg wet, 65 kg dry
Launch date (UTC)
1968-07-04 (58 years ago)
Launch vehicle
Unknown
Launch site
Air Force Western Test Range (AFWTR)
Object type
Payload
Rocket body
Debris
Shape & HBR
Unknown
Radar Cross Section
Large (>1 m²)

Expand to show TLE details & history
Last TLE update: 18 hours ago

TLE from 18 hours ago
0 DELTA 1 R/B
1  3315U 68055B   26177.95341898  .00000103  00000-0  32581-3 0  9992
2  3315 120.6653 240.1073 2632712 253.6829 307.3294  9.25745693942454
Epoch: 2026-06-26T22:52Z
TLE epoch observation values (Epoch: 2026-06-26T22:52:55.399Z)
Latitude
6.49752°
Longitude
165.6564°
Altitude
2,197.654 km
Speed
7.168 km/s
True Right ascension
04h 15m 50s
True Declination
6° 27' 56"
Sunlit
Object was in daylight at epoch
Visualization orbit readout
Latitude
Unknown
Longitude
Unknown
Altitude
Unknown
Speed
Unknown
Apparent Right ascension
Unknown
Apparent Declination
Unknown
Sunlit
N/A
Visualization observer readout
Local Sidereal Time
04:27:37
Azimuth
Unknown
Elevation
Unknown
Doppler factor
Unknown
Orbital elements
Apogee altitude
5,724.465 km
Perigee altitude
679.995 km
Semi-major axis
9,580.367 km
Eccentricity
0.26327
Inclination
120.6653°
RAAN
240.1073°
Arg. of periapsis
253.6829°
True anomaly
278.70162°
Mean anomaly
307.3294°
Eccentric anomaly
293.49571°
Mean motion
2.31457 °/min
Orbital period
155.54 mins
BSTAR
0.00032581
Loading maneuver chart data...
Computing Atmospheric mass density...
Loading historical data...
Loading historical data...
Loading historical data...
Loading historical data...
Loading historical data...
Loading historical data...
Loading historical data...

Documentation

Showing up to 5 results
|